Louisville, KY

10:21 PM EST on December 09, 2016 (GMT -0500)
Bowman

Weather History for KLOU - May, 2014

Change the Weather History Date:

Saturday, May 3, 2014

  Actual Average Record
Temperature  
Mean Temperature 61 °F 62 °F  
Max Temperature 75 °F 73 °F 93 °F (1959)
Min Temperature 47 °F 52 °F 35 °F (1961)
Degree Days  
Heating Degree Days 4 4  
Month to date heating degree days 23 13  
Since 1 July heating degree days 4664 4204  
Cooling Degree Days 0 2  
Month to date cooling degree days 0 5  
Year to date cooling degree days 34 39  
Growing Degree Days 10 (Base 50)    
Moisture  
Dew Point 39 °F    
Average Humidity 51    
Maximum Humidity 77    
Minimum Humidity 25    
Precipitation  
Precipitation 0.00 in 0.18 in 1.38 in (1983)
Month to date precipitation T 0.56  
Year to date precipitation 15.41 15.36  
Sea Level Pressure  
Sea Level Pressure 29.91 in    
Wind  
Wind Speed 8 mph (SW)    
Max Wind Speed 23 mph    
Max Gust Speed 31 mph    
Visibility 10 miles    
Events      
T = Trace of Precipitation, MM = Missing Value Source: NWS Daily Summary

Daily Weather History Graph

Daily Weather History Graph

Search for Another Location

Airport or City:

Trip Planner

Search our weather history database for the weather conditions in past years. The results will help you decide how hot, cold, wet, or windy it might be!

Date:

Astronomy

May. 03, 2014 Rise Set
Actual Time 6:43 AM EDT 8:35 PM EDT
Civil Twilight 6:15 AM EDT 9:04 PM EDT
Nautical Twilight 5:40 AM EDT 9:39 PM EDT
Astronomical Twilight 5:03 AM EDT 10:16 PM EDT
Moon 10:13 AM EDT (5/3) No Moon Set
Length of Visible Light 14h 49m
Length of Day
13h 52m
Waxing Crescent, 19% of the Moon is Illuminated
May 3
Waxing Crescent
May 6
First Quarter
May 14
Full
May 21
Last Quarter
May 28
New

Hourly Weather History & Observations

Time (EDT) Temp. Dew Point Humidity Pressure Visibility Wind Dir Wind Speed Gust Speed Precip Events Conditions
12:53 AM 48.9 °F 39.9 °F 71% 29.93 in 10.0 mi Calm Calm - N/A   Clear
1:53 AM 48.9 °F 39.9 °F 71% 29.91 in 10.0 mi Calm Calm - N/A   Clear
2:53 AM 48.0 °F 39.9 °F 74% 29.91 in 10.0 mi South 3.5 mph - N/A   Clear
3:53 AM 48.0 °F 41.0 °F 77% 29.89 in 10.0 mi South 3.5 mph - N/A   Clear
4:53 AM 48.0 °F 41.0 °F 77% 29.89 in 10.0 mi South 4.6 mph - N/A   Mostly Cloudy
5:53 AM 48.2 °F 41.0 °F 76% 29.89 in 10.0 mi South 4.6 mph - N/A   Scattered Clouds
6:53 AM 48.9 °F 39.9 °F 71% 29.89 in 10.0 mi South 4.6 mph - N/A   Scattered Clouds
7:53 AM 51.1 °F 41.0 °F 68% 29.89 in 10.0 mi South 4.6 mph - N/A   Overcast
8:53 AM 55.0 °F 43.0 °F 64% 29.88 in 10.0 mi South 4.6 mph - N/A   Mostly Cloudy
9:53 AM 60.1 °F 42.1 °F 51% 29.88 in 10.0 mi SSW 8.1 mph - N/A   Scattered Clouds
10:53 AM 66.0 °F 43.0 °F 43% 29.87 in 10.0 mi WSW 13.8 mph 21.9 mph N/A   Partly Cloudy
11:53 AM 68.0 °F 42.1 °F 39% 29.88 in 10.0 mi WSW 18.4 mph 25.3 mph N/A   Clear
12:53 PM 70.0 °F 43.0 °F 38% 29.88 in 10.0 mi WSW 12.7 mph 19.6 mph N/A   Clear
1:53 PM 72.0 °F 39.0 °F 30% 29.89 in 10.0 mi WNW 18.4 mph 29.9 mph N/A   Clear
2:53 PM 72.0 °F 39.9 °F 31% 29.89 in 10.0 mi West 18.4 mph 31.1 mph N/A   Clear
3:53 PM 73.0 °F 42.1 °F 33% 29.89 in 10.0 mi WSW 12.7 mph 24.2 mph N/A   Clear
4:53 PM 73.9 °F 36.0 °F 25% 29.89 in 10.0 mi WNW 15.0 mph - N/A   Clear
5:53 PM 73.0 °F 35.1 °F 25% 29.91 in 10.0 mi West 16.1 mph 26.5 mph N/A   Clear
6:53 PM 72.0 °F 34.0 °F 25% 29.92 in 10.0 mi West 10.4 mph - N/A   Clear
7:53 PM 70.0 °F 32.0 °F 25% 29.94 in 10.0 mi West 9.2 mph 19.6 mph N/A   Clear
8:53 PM 66.0 °F 34.0 °F 30% 29.95 in 10.0 mi West 5.8 mph - N/A   Clear
9:53 PM 62.1 °F 36.0 °F 38% 29.96 in 10.0 mi WSW 4.6 mph - N/A   Clear
10:53 PM 60.1 °F 37.0 °F 42% 29.97 in 10.0 mi Calm Calm - N/A   Clear
11:53 PM 57.0 °F 39.0 °F 51% 29.97 in 10.0 mi Calm Calm - N/A   Clear